This demonstration page uses our WeatherBlox Daily Observations layout. Learn more.

Left ArrowRight Arrow

Hourly Observations for December 24, 2021

Temp ( °F °C ) Dew Point ( °F °C ) Humidity (%) Winds ( mph kmh ) Pressure ( in mb ) Visibility ( mi km ) Precip ( " mm )
12:51 am 00:51 Clear 50 10 21 -6.1 32 32 E 7 11 29.83 1010 10 16 0.00 0.00
1:51 am 01:51 Mostly Clear 51 10.6 25 -3.9 36 36 N 7 11 29.83 1010 10 16 0.00 0.00
2:51 am 02:51 Clear 48 8.9 27 -2.8 44 44 E 7 11 29.82 1010 10 16 0.00 0.00
3:51 am 03:51 Clear 51 10.6 31 -0.6 46 46 NE 6 9 29.80 1009 10 16 0.00 0.00
4:51 am 04:51 Mostly Cloudy 53 11.7 32 0 45 45 NNE 5 7 29.78 1009 10 16 0.00 0.00
5:51 am 05:51 Cloudy 58 14.4 36 2.2 44 44 undefined N/A 29.79 1009 10 16 0.00 0.00
6:51 am 06:51 Cloudy 56 13.3 39 3.9 53 53 Calm 29.80 1009 10 16 0.00 0.00
7:51 am 07:51 Cloudy 54 12.2 50 10 87 87 NW 18 30 29.84 1011 10 16 0.00 0.00
8:51 am 08:51 Cloudy with Light Rain 50 10 49 9.4 96 96 NW 21 33 29.90 1013 6 10 0.02 0.51
9:51 am 09:51 Cloudy with Light Rain 50 10 48 8.9 93 93 NNW 17 28 29.91 1013 10 16 0.07 1.78
10:51 am 10:51 Cloudy with Rain 50 10 49 9.4 96 96 NNW 14 22 29.92 1013 6 10 0.08 2.03
11:51 am 11:51 Cloudy with Light Rain 50 10 49 9.4 96 96 E 10 17 29.85 1011 10 16 0.08 2.03
12:51 pm 12:51 Cloudy 51 10.6 50 10 96 96 SE 9 15 29.83 1010 10 16 0.04 1.02
1:13 pm 13:13 Cloudy 51 10.6 51 10.6 100 100 E 9 15 29.86 1011 10 16 0.00 0.00
1:34 pm 13:34 Cloudy 53 11.7 51 10.6 93 93 E 10 17 29.84 1011 10 16 0.00 0.00
1:51 pm 13:51 Partly Cloudy 54 12.2 50 10 87 87 NE 13 20 29.82 1010 10 16 0.00 0.00
2:51 pm 14:51 Mostly Cloudy 55 12.8 51 10.6 87 87 E 12 19 29.80 1009 10 16 0.00 0.00
3:51 pm 15:51 Mostly Sunny 58 14.4 51 10.6 78 78 ENE 3 6 29.80 1009 10 16 0.00 0.00
4:51 pm 16:51 Mostly Cloudy 53 11.7 52 11.1 96 96 WNW 7 11 29.82 1010 10 16 0.00 0.00
5:51 pm 17:51 Mostly Clear 50 10 50 10 100 100 NW 8 13 29.83 1010 10 16 0.00 0.00
6:51 pm 18:51 Mostly Cloudy 49 9.4 49 9.4 100 100 ESE 6 9 29.85 1011 10 16 0.00 0.00
7:51 pm 19:51 Mostly Cloudy 48 8.9 48 8.9 100 100 Calm 29.87 1012 10 16 0.00 0.00
8:51 pm 20:51 Clear 48 8.9 48 8.9 100 100 E 6 9 29.89 1012 10 16 0.00 0.00
9:51 pm 21:51 Clear 46 7.8 46 7.8 100 100 Calm 29.93 1013 10 16 0.00 0.00
10:51 pm 22:51 Clear 46 7.8 46 7.8 100 100 NE 8 13 29.93 1013 10 16 0.00 0.00
11:51 pm 23:51 Clear 44 6.7 44 6.7 100 100 ENE 5 7 29.93 1014 10 16 0.00 0.00

Powered by AerisWeather